Погода в Родниках

Россия / Московская область     55°38′59″N   38°04′04″E
темп.,
°C
ветер,
м/с
пор.,
м/с
влажн.,
%
обл.,
%
осадки,
мм/ч
давл.,
гПа
погр.,
м
22 января, сб
сб2200:00−6ююв489397 0.6 999363
03:00−8юв3996100 1.1 1000396
06:00−7вюв41195100 1.0 1001520
09:00−7вюв41195100 1.6 1004454
12:00−5вюв4895100 0.4 1006423
15:00−5вюв3795100 1.1 1008403
18:00−6вюв3796100 0.3 1011265
21:00−8в269680 0.7 1013169
23 января, вс
вс2300:00−11в259898 0.1 101684
03:00−15в2399100 0.1 101941
06:00−14всв239891 0.1 102266
09:00−18всв2210090 0.1 102524
12:00−11всв119595 0.1 1028106
15:00−9св129672 0.1 1029128
18:00−16св229973 0.0 10329
21:00−18св1110096 0.0 10359
24 января, пн
пн2400:00−19св2210099 0.0 103719
03:00−21всв1110099 0.0 10389
06:00−20ссв23100100 0.0 103838
09:00−22св11100100 0.1 103915
12:00−12всв239696 0.0 1038132
15:00−9св13955 0.0 1037132
18:00−16св2210080 0.0 103713
21:00−18всв1110098 0.0 10369
25 января, вт
вт2500:00−18в11100100 0.0 10349
03:00−20в11100100 0.1 10329
06:00−21вюв11100100 0.0 10309
09:00−21юв11100100 0.1 102921
12:00−13ю239589 0.0 1026147
15:00−10ююв259450 0.0 1023216
18:00−15ююв2599100 0.0 102263
21:00−16ююв259970 0.0 102178
26 января, ср
ср2600:00−14ююв249799 0.1 1020104
03:00−13ююв249780 0.3 101998
06:00−13юв249789 0.1 101892
09:00−12юв2597100 0.3 1018153
12:00−9юв2493100 0.1 1017271
15:00−7юв2493100 0.4 1017368
18:00−9юв2597100 0.3 1017107
21:00−10ююв259794 0.4 1016130